| time (UTC) | temp C | wind direction | speed KPH | gust KPH | rain 1hr cm | rain 24hr cm | rain mn cm | humidity % | barometer mb |
| 20260507052008 | 11 | 113 | 0.0 | 3.2 | 0.00 | 0.00 | 0.00 | 89 | 1022.2 |
| 20260507051007 | 11 | 0.0 | 0.0 | 0.00 | 0.00 | 0.00 | 87 | 1022.2 | |
| 20260507050013 | 12 | 0.0 | 0.0 | 0.00 | 0.00 | 0.00 | 86 | 1022.3 | |
| 20260507045006 | 12 | 0.0 | 0.0 | 0.00 | 0.00 | 0.00 | 85 | 1022.2 | |
| 20260507044008 | 13 | 323 | 0.0 | 3.2 | 0.00 | 0.00 | 0.00 | 83 | 1022.2 |
| 20260507043007 | 13 | 293 | 0.0 | 3.2 | 0.00 | 0.00 | 0.00 | 83 | 1022.1 |
| 20260507042008 | 13 | 248 | 0.0 | 3.2 | 0.00 | 0.00 | 0.00 | 82 | 1022.0 |
| 20260507041009 | 14 | 38 | 1.6 | 6.4 | 0.00 | 0.00 | 0.00 | 82 | 1022.0 |
| 20260507040008 | 14 | 349 | 1.6 | 4.8 | 0.00 | 0.00 | 0.00 | 82 | 1021.8 |
| 20260507035006 | 14 | 223 | 1.6 | 3.2 | 0.00 | 0.00 | 0.00 | 80 | 1021.7 |
| 20260507034009 | 15 | 254 | 3.2 | 4.8 | 0.00 | 0.00 | 0.00 | 81 | 1021.6 |
| 20260507033007 | 15 | 0.0 | 0.0 | 0.00 | 0.00 | 0.00 | 81 | 1021.4 | |
| 20260507032008 | 15 | 0.0 | 0.0 | 0.00 | 0.00 | 0.00 | 82 | 1021.3 | |
| 20260507031008 | 15 | 0.0 | 0.0 | 0.00 | 0.00 | 0.00 | 81 | 1021.2 | |
| 20260507030007 | 16 | 318 | 1.6 | 6.4 | 0.00 | 0.00 | 0.00 | 80 | 1021.1 |
| 20260507025007 | 16 | 81 | 3.2 | 6.4 | 0.00 | 0.00 | 0.00 | 79 | 1020.9 |
| 20260507024006 | 17 | 15 | 3.2 | 8.0 | 0.00 | 0.00 | 0.00 | 77 | 1020.8 |
| 20260507023007 | 17 | 330 | 3.2 | 4.8 | 0.00 | 0.00 | 0.00 | 76 | 1020.8 |
| 20260507022008 | 17 | 19 | 4.8 | 6.4 | 0.00 | 0.00 | 0.00 | 77 | 1020.7 |
| 20260507021012 | 17 | 10 | 3.2 | 6.4 | 0.00 | 0.00 | 0.00 | 78 | 1020.6 |
| 20260507020006 | 17 | 317 | 4.8 | 6.4 | 0.00 | 0.00 | 0.00 | 77 | 1020.7 |
| 20260507015009 | 17 | 4 | 3.2 | 4.8 | 0.00 | 0.00 | 0.00 | 75 | 1020.7 |
| 20260507014007 | 18 | 308 | 4.8 | 8.0 | 0.00 | 0.00 | 0.00 | 74 | 1020.8 |
| 20260507013007 | 17 | 21 | 4.8 | 8.0 | 0.00 | 0.00 | 0.00 | 77 | 1020.7 |
| 20260507012008 | 17 | 332 | 3.2 | 4.8 | 0.00 | 0.00 | 0.00 | 76 | 1020.8 |
| 20260507011007 | 17 | 28 | 4.8 | 9.7 | 0.00 | 0.00 | 0.00 | 76 | 1020.8 |
| 20260507010007 | 18 | 11 | 3.2 | 6.4 | 0.00 | 0.00 | 0.00 | 74 | 1020.7 |
| 20260507005006 | 19 | 358 | 3.2 | 4.8 | 0.00 | 0.00 | 0.00 | 73 | 1020.7 |
| 20260507004006 | 19 | 21 | 3.2 | 6.4 | 0.00 | 0.00 | 0.00 | 73 | 1020.6 |
| 20260507003006 | 20 | 346 | 4.8 | 8.0 | 0.00 | 0.00 | 0.00 | 70 | 1020.6 |
| 20260507002013 | 20 | 322 | 4.8 | 8.0 | 0.00 | 0.00 | 0.00 | 72 | 1020.5 |
| 20260507001006 | 19 | 342 | 3.2 | 4.8 | 0.00 | 0.00 | 0.00 | 74 | 1020.6 |
| 20260507000007 | 20 | 354 | 3.2 | 6.4 | 0.00 | 0.00 | 0.00 | 74 | 1020.6 |
| 20260506235005 | 19 | 42 | 3.2 | 4.8 | 0.00 | 0.00 | 0.00 | 75 | 1020.6 |
| 20260506234005 | 20 | 320 | 3.2 | 6.4 | 0.00 | 0.00 | 0.00 | 76 | 1020.5 |
| 20260506233008 | 20 | 345 | 3.2 | 4.8 | 0.00 | 0.00 | 0.00 | 76 | 1020.5 |
| 20260506232008 | 20 | 32 | 3.2 | 6.4 | 0.00 | 0.00 | 0.00 | 75 | 1020.5 |
| 20260506231009 | 20 | 12 | 3.2 | 8.0 | 0.00 | 0.00 | 0.00 | 74 | 1020.6 |
| 20260506230006 | 20 | 306 | 1.6 | 4.8 | 0.00 | 0.00 | 0.00 | 74 | 1020.5 |
| 20260506225008 | 20 | 356 | 3.2 | 4.8 | 0.00 | 0.00 | 0.00 | 72 | 1020.7 |
| 20260506224006 | 21 | 318 | 1.6 | 3.2 | 0.00 | 0.00 | 0.00 | 71 | 1020.8 |
| 20260506223007 | 22 | 345 | 1.6 | 6.4 | 0.00 | 0.00 | 0.00 | 71 | 1020.8 |
| 20260506222005 | 22 | 319 | 3.2 | 6.4 | 0.00 | 0.00 | 0.00 | 68 | 1020.8 |
| 20260506221008 | 21 | 355 | 3.2 | 6.4 | 0.00 | 0.00 | 0.00 | 73 | 1020.9 |
| 20260506220010 | 20 | 8 | 3.2 | 4.8 | 0.00 | 0.00 | 0.00 | 73 | 1020.9 |
| 20260506215010 | 21 | 13 | 4.8 | 8.0 | 0.00 | 0.00 | 0.00 | 71 | 1020.9 |
| 20260506214010 | 22 | 3 | 4.8 | 6.4 | 0.00 | 0.00 | 0.00 | 68 | 1020.8 |
| 20260506213009 | 21 | 253 | 3.2 | 4.8 | 0.00 | 0.00 | 0.00 | 70 | 1020.9 |
| 20260506212008 | 21 | 7 | 1.6 | 6.4 | 0.00 | 0.00 | 0.00 | 68 | 1020.9 |
| 20260506211006 | 21 | 203 | 0.0 | 3.2 | 0.00 | 0.00 | 0.00 | 71 | 1021.0 |
| 20260506210006 | 20 | 308 | 3.2 | 4.8 | 0.00 | 0.00 | 0.00 | 70 | 1021.1 |
| 20260506205007 | 20 | 227 | 3.2 | 4.8 | 0.00 | 0.00 | 0.00 | 71 | 1021.2 |
| 20260506204010 | 20 | 238 | 3.2 | 4.8 | 0.00 | 0.00 | 0.00 | 73 | 1021.2 |
| 20260506203005 | 20 | 209 | 3.2 | 6.4 | 0.00 | 0.00 | 0.00 | 73 | 1021.2 |
| 20260506202007 | 20 | 221 | 3.2 | 4.8 | 0.00 | 0.00 | 0.00 | 74 | 1021.2 |
| 20260506201010 | 19 | 177 | 3.2 | 4.8 | 0.00 | 0.00 | 0.00 | 74 | 1021.1 |
| 20260506200006 | 20 | 310 | 3.2 | 4.8 | 0.00 | 0.00 | 0.00 | 75 | 1021.2 |
| 20260506195012 | 19 | 245 | 4.8 | 8.0 | 0.00 | 0.00 | 0.00 | 75 | 1021.4 |
| 20260506194008 | 20 | 140 | 4.8 | 8.0 | 0.00 | 0.00 | 0.00 | 72 | 1021.4 |
| 20260506193006 | 20 | 158 | 3.2 | 6.4 | 0.00 | 0.00 | 0.00 | 76 | 1021.4 |
| 20260506192007 | 18 | 43 | 1.6 | 6.4 | 0.00 | 0.00 | 0.00 | 79 | 1021.6 |
| 20260506191008 | 18 | 360 | 1.6 | 3.2 | 0.00 | 0.00 | 0.00 | 80 | 1021.6 |
| 20260506190009 | 17 | 315 | 3.2 | 6.4 | 0.00 | 0.00 | 0.00 | 81 | 1021.6 |
| 20260506185011 | 17 | 146 | 0.0 | 3.2 | 0.00 | 0.00 | 0.00 | 83 | 1021.6 |
| 20260506184009 | 17 | 203 | 0.0 | 4.8 | 0.00 | 0.00 | 0.00 | 80 | 1021.6 |
| 20260506183008 | 17 | 217 | 1.6 | 4.8 | 0.00 | 0.00 | 0.00 | 79 | 1021.5 |
| 20260506182008 | 17 | 252 | 3.2 | 4.8 | 0.00 | 0.00 | 0.00 | 79 | 1021.5 |
| 20260506181011 | 17 | 272 | 3.2 | 4.8 | 0.00 | 0.00 | 0.00 | 81 | 1021.4 |
| 20260506180007 | 17 | 1 | 1.6 | 3.2 | 0.00 | 0.00 | 0.00 | 82 | 1021.5 |
| 20260506175010 | 17 | 0.0 | 0.0 | 0.00 | 0.00 | 0.00 | 82 | 1021.5 | |
| 20260506174009 | 16 | 239 | 3.2 | 3.2 | 0.00 | 0.00 | 0.00 | 81 | 1021.5 |
| 20260506173006 | 16 | 8 | 0.0 | 3.2 | 0.00 | 0.00 | 0.00 | 82 | 1021.4 |
| 20260506172006 | 16 | 219 | 1.6 | 3.2 | 0.00 | 0.00 | 0.00 | 83 | 1021.3 |
| 20260506171007 | 16 | 180 | 1.6 | 3.2 | 0.00 | 0.00 | 0.00 | 84 | 1021.4 |
| 20260506170008 | 16 | 180 | 1.6 | 4.8 | 0.00 | 0.00 | 0.00 | 83 | 1021.3 |
| 20260506165012 | 15 | 0.0 | 0.0 | 0.00 | 0.00 | 0.00 | 86 | 1021.3 | |
| 20260506164008 | 15 | 0.0 | 0.0 | 0.00 | 0.00 | 0.00 | 85 | 1021.3 | |
| 20260506163006 | 15 | 180 | 0.0 | 3.2 | 0.00 | 0.00 | 0.00 | 88 | 1021.5 |
| 20260506162007 | 15 | 0.0 | 0.0 | 0.00 | 0.00 | 0.00 | 87 | 1021.5 | |
| 20260506161007 | 15 | 180 | 0.0 | 1.6 | 0.00 | 0.00 | 0.00 | 89 | 1021.4 |
| 20260506160014 | 15 | 180 | 1.6 | 4.8 | 0.00 | 0.00 | 0.00 | 89 | 1021.3 |
| 20260506155007 | 14 | 0.0 | 0.0 | 0.00 | 0.00 | 0.00 | 90 | 1020.9 | |
| 20260506154005 | 14 | 180 | 1.6 | 4.8 | 0.00 | 0.00 | 0.00 | 90 | 1020.8 |
| 20260506153008 | 14 | 180 | 1.6 | 3.2 | 0.00 | 0.00 | 0.00 | 90 | 1020.8 |
| 20260506152009 | 14 | 180 | 1.6 | 3.2 | 0.00 | 0.00 | 0.00 | 89 | 1020.8 |
| 20260506151011 | 13 | 180 | 1.6 | 3.2 | 0.00 | 0.00 | 0.00 | 90 | 1020.8 |
| 20260506150008 | 13 | 0.0 | 0.0 | 0.00 | 0.00 | 0.00 | 92 | 1021.2 | |
| 20260506145007 | 13 | 0.0 | 1.6 | 0.00 | 0.00 | 0.00 | 94 | 1021.3 | |
| 20260506144009 | 13 | 180 | 0.0 | 4.8 | 0.00 | 0.00 | 0.00 | 96 | 1021.2 |
| 20260506143006 | 13 | 180 | 0.0 | 3.2 | 0.00 | 0.00 | 0.00 | 96 | 1021.2 |
| 20260506142008 | 13 | 0.0 | 1.6 | 0.00 | 0.00 | 0.00 | 97 | 1021.0 | |
| 20260506141012 | 13 | 0.0 | 0.0 | 0.00 | 0.00 | 0.00 | 98 | 1020.8 | |
| 20260506140006 | 12 | 0.0 | 0.0 | 0.00 | 0.00 | 0.00 | 98 | 1020.3 | |
| 20260506135009 | 12 | 0.0 | 0.0 | 0.00 | 0.00 | 0.00 | 98 | 1020.3 | |
| 20260506134007 | 12 | 0.0 | 0.0 | 0.00 | 0.00 | 0.00 | 98 | 1020.4 | |
| 20260506133006 | 12 | 0.0 | 0.0 | 0.00 | 0.00 | 0.00 | 98 | 1020.3 | |
| 20260506132010 | 11 | 0.0 | 0.0 | 0.00 | 0.00 | 0.00 | 98 | 1020.2 | |
| 20260506131008 | 11 | 0.0 | 0.0 | 0.00 | 0.00 | 0.00 | 97 | 1020.2 | |
| 20260506130007 | 11 | 0.0 | 0.0 | 0.00 | 0.00 | 0.00 | 96 | 1020.0 | |
| 20260506125009 | 11 | 0.0 | 0.0 | 0.00 | 0.00 | 0.00 | 95 | 1019.9 | |
| 20260506124007 | 11 | 0.0 | 0.0 | 0.00 | 0.00 | 0.00 | 95 | 1019.8 | |
| 20260506123008 | 12 | 0.0 | 0.0 | 0.00 | 0.00 | 0.00 | 94 | 1019.7 | |
| 20260506122009 | 12 | 0.0 | 0.0 | 0.00 | 0.00 | 0.00 | 94 | 1019.6 | |
| 20260506121007 | 12 | 0.0 | 0.0 | 0.00 | 0.00 | 0.00 | 95 | 1019.7 | |
| 20260506120007 | 13 | 0.0 | 0.0 | 0.00 | 0.00 | 0.00 | 95 | 1019.7 | |
| 20260506115008 | 13 | 0.0 | 0.0 | 0.00 | 0.00 | 0.00 | 95 | 1019.7 | |
| 20260506114008 | 13 | 180 | 0.0 | 1.6 | 0.00 | 0.00 | 0.00 | 95 | 1019.6 |
| 20260506113006 | 13 | 0.0 | 0.0 | 0.00 | 0.00 | 0.00 | 95 | 1019.5 | |
| 20260506112007 | 13 | 0.0 | 0.0 | 0.00 | 0.00 | 0.00 | 95 | 1019.5 | |
| 20260506111005 | 13 | 0.0 | 0.0 | 0.00 | 0.00 | 0.00 | 95 | 1019.5 | |
| 20260506110008 | 13 | 0.0 | 0.0 | 0.00 | 0.00 | 0.00 | 95 | 1019.3 | |
| 20260506105009 | 13 | 0.0 | 0.0 | 0.00 | 0.00 | 0.00 | 95 | 1019.1 | |
| 20260506104009 | 13 | 0.0 | 0.0 | 0.00 | 0.00 | 0.00 | 95 | 1019.0 | |
| 20260506103008 | 13 | 0.0 | 0.0 | 0.00 | 0.00 | 0.00 | 95 | 1019.0 | |
| 20260506102009 | 13 | 0.0 | 0.0 | 0.00 | 0.00 | 0.00 | 94 | 1018.8 | |
| 20260506101012 | 13 | 0.0 | 0.0 | 0.00 | 0.00 | 0.00 | 95 | 1018.7 | |
| 20260506100007 | 13 | 0.0 | 0.0 | 0.00 | 0.00 | 0.00 | 94 | 1018.6 | |
| 20260506095008 | 13 | 0.0 | 0.0 | 0.00 | 0.00 | 0.00 | 94 | 1018.5 | |
| 20260506094008 | 13 | 0.0 | 0.0 | 0.00 | 0.00 | 0.00 | 94 | 1018.4 | |
| 20260506093009 | 13 | 0.0 | 0.0 | 0.00 | 0.00 | 0.00 | 93 | 1018.4 | |
| 20260506092006 | 13 | 0.0 | 0.0 | 0.00 | 0.00 | 0.00 | 93 | 1018.4 | |
| 20260506091006 | 13 | 180 | 0.0 | 1.6 | 0.00 | 0.00 | 0.00 | 94 | 1018.3 |
| 20260506090008 | 13 | 0.0 | 0.0 | 0.00 | 0.00 | 0.00 | 93 | 1018.3 | |
| 20260506085007 | 13 | 0.0 | 0.0 | 0.00 | 0.00 | 0.00 | 93 | 1018.3 | |
| 20260506084009 | 13 | 0.0 | 0.0 | 0.00 | 0.00 | 0.00 | 92 | 1018.3 | |
| 20260506083009 | 13 | 0.0 | 0.0 | 0.00 | 0.00 | 0.00 | 92 | 1018.2 | |
| 20260506082009 | 13 | 0.0 | 0.0 | 0.00 | 0.00 | 0.00 | 92 | 1018.2 | |
| 20260506081006 | 13 | 0.0 | 0.0 | 0.00 | 0.00 | 0.00 | 92 | 1018.2 | |
| 20260506073007 | 14 | 0.0 | 0.0 | 0.00 | 0.00 | 0.00 | 91 | 1017.9 | |
| 20260506072008 | 14 | 0.0 | 0.0 | 0.00 | 0.00 | 0.00 | 92 | 1017.8 | |
| 20260506071009 | 14 | 270 | 0.0 | 3.2 | 0.00 | 0.00 | 0.00 | 91 | 1017.8 |
| 20260506062006 | 14 | 0.0 | 0.0 | 0.00 | 0.00 | 0.00 | 92 | 1017.5 | |
| 20260506061008 | 14 | 0.0 | 0.0 | 0.00 | 0.00 | 0.00 | 93 | 1017.5 |